[[{"header":{"parameterUnit":"m.s-1","parameterCategory":1,"la1":30.2991,"la2":30.254,"lo1":-89.0895,"lo2":-89.0444,"dy":0.0017,"dx":0.0017,"nx":28,"ny":28,"refTime":"2025-03-19T21:00:00:Z","depth":0,"parameterNumber":2,"parameterNumberName":"U-component_of_WINDS"},"data":[0,0,0,0,0,0,0,0,0,0,0,0,0,0,0,0,0,0,0,0,0,0,0,0,0,0,0,0,0,0,0,0,0,0,0,0,0,0,0,0,0,0,0,0,0,0,0,0,0,0,0,0,0,0,0,0,0,0,6.9007,6.9008,0,6.913,6.9131,6.9133,6.9064,6.9061,6.9057,6.9054,6.9179,6.9185,6.9191,0,0,0,0,0,0,0,0,0,0,0,0,0,6.8712,6.8718,6.9006,6.9008,6.901,6.913,6.9131,6.9133,6.9065,6.9061,6.9056,6.9053,6.9176,6.9184,6.9192,0,0,0,0,0,0,0,0,0,0,0,0,0,6.8838,6.8719,6.9006,6.899,6.899,6.9129,6.9131,6.9134,6.9066,6.906,6.9055,6.9051,6.9174,6.9183,6.9193,6.9355,0,0,6.9223,6.9227,0,0,0,0,0,0,0,0,6.8831,6.8849,6.8991,6.8991,6.8991,6.9076,6.9073,6.9208,6.9067,6.9037,6.9054,6.9048,6.9149,6.916,6.9194,6.9361,6.9366,6.9223,6.9229,6.9234,6.9236,0,0,0,0,0,0,0,6.8822,6.8843,6.9055,6.8993,6.8993,6.8977,6.8989,6.9098,6.912,6.9039,6.9034,6.905,6.9148,6.9185,6.9197,6.9368,6.9223,6.9232,6.9238,6.9242,6.9676,6.9682,0,0,0,0,0,0,6.8815,6.8836,6.9051,6.9059,6.8897,6.8986,6.9,6.9054,6.9118,6.9123,6.9054,6.9046,6.9171,6.9185,6.9201,6.9396,6.9233,6.9243,6.9248,6.9671,6.9677,6.9684,0,0,0,0,0,0,6.8809,6.8834,6.9046,6.8947,6.8972,6.8997,6.9058,6.9059,6.9097,6.913,6.9133,6.9088,6.9168,6.9187,6.9318,6.94,6.9247,6.9256,6.9664,6.9673,6.9681,6.9788,0,0,0,0,0,0,6.88,6.8833,6.8894,6.8948,6.8978,6.9161,6.9063,6.9065,6.9114,6.9105,6.9163,6.9168,6.9165,6.9304,6.9328,6.941,6.9263,6.9657,6.9668,6.9678,6.9777,6.9799,6.9817,0,0,0,0,0,6.879,6.8918,6.8898,6.8924,6.9055,6.9166,6.9183,6.9178,6.9121,6.9183,6.9205,6.9166,6.9387,6.9318,6.9344,6.9431,6.9651,6.9665,6.9677,6.9768,6.9794,6.9817,0,0,0,0,0,0,6.8872,6.8925,6.8903,6.9052,6.9106,6.9154,6.9233,6.9206,6.9276,6.9264,6.9255,6.9269,6.9405,6.9431,6.9353,6.9592,6.951,6.9529,6.957,6.9596,6.9616,6.9607,6.9271,0,0,0,0,0,6.8907,6.8993,6.9035,6.9163,6.9191,6.9208,6.9256,6.9248,6.9302,6.9324,6.9355,6.9409,6.9491,6.9545,6.9622,6.9781,6.9793,6.9854,6.9874,6.989,6.9906,6.9994,7.0022,6.9726,6.9726,6.9726,0,0,6.8981,6.9021,6.9076,6.9181,6.9221,6.9311,6.9227,6.9324,6.9391,6.9338,6.9464,6.949,6.9549,6.9696,6.9761,6.9721,6.9992,6.9907,6.992,6.9927,7.0011,7.0039,7.0064,6.9735,6.9733,6.9732,0,0,6.9162,6.92,6.9312,6.9355,6.9418,6.9429,6.9456,6.951,6.9525,6.9652,6.9615,6.9694,6.9834,6.9879,6.992,7.0122,7.0089,7.0148,7.0253,7.0339,7.0363,7.0383,7.0456,7.0483,7.0164,7.0164,7.0164,0,6.9246,6.9379,6.9373,6.9475,6.9523,6.9481,6.9595,6.9637,6.9721,6.9755,6.9709,6.9887,6.9924,7.0081,7.0131,7.0165,7.0197,7.014,7.036,7.0381,7.04,7.0469,7.0497,7.0171,7.017,7.0169,7.0169,0,6.948,6.9574,6.9656,6.9741,6.9798,6.9905,6.9916,6.9975,6.9963,6.9979,7.0109,7.0153,7.0239,7.0276,7.0264,7.0433,7.0406,7.0361,7.0278,7.0435,7.05,7.0527,7.018,7.0178,7.0176,7.0174,0,0,6.9713,6.9795,6.9826,6.9865,6.9932,7.0004,7.0111,7.0196,7.0248,7.0308,7.0397,7.0519,7.0479,7.0526,7.0519,7.0594,7.0753,7.054,7.0541,7.0579,7.0943,7.0977,7.1008,7.0733,7.0738,7.0742,7.0938,0,6.9899,7.0085,7.0084,7.0256,7.0343,7.0307,7.04,7.0452,7.047,7.0547,7.0567,7.0654,7.0593,7.0622,7.0695,7.0719,7.0826,7.0704,7.0816,7.082,7.0802,7.1042,7.1077,7.1261,7.0964,7.0968,7.0971,0,7.014,7.021,7.0392,7.0449,7.0486,7.0569,7.0649,7.0723,7.0781,7.079,7.0844,7.0827,7.0936,7.0851,7.1001,7.0919,7.0964,7.0983,7.099,7.1,7.0905,7.1058,7.1319,7.1347,7.1011,7.1008,7.1005,0,7.0293,7.0433,7.056,7.0595,7.0664,7.0724,7.0756,7.081,7.0862,7.0932,7.0966,7.1048,7.1092,7.1156,7.1161,7.1099,7.1314,7.1229,7.1324,7.1324,7.137,7.1367,7.1642,7.14,7.14,7.1399,7.1399,0,7.0501,7.0613,7.063,7.0709,7.0834,7.0833,7.0957,7.0984,7.1033,7.1116,7.1089,7.1168,7.117,7.1251,7.1256,7.1381,7.1401,7.1411,7.1411,7.1414,7.1412,7.1443,7.143,7.1406,7.1405,7.1403,7.1402,0,7.0692,7.0708,7.0845,7.0901,7.0918,7.1008,7.1056,7.1131,7.1148,7.1254,7.1279,7.1305,7.1399,7.1412,7.1521,7.1524,7.1675,7.1661,7.1655,7.1653,7.1748,7.1739,7.2052,7.2093,7.1824,7.1827,7.1829,0,7.0824,7.091,7.0976,7.103,7.1066,7.1153,7.1208,7.121,7.1268,7.1343,7.1409,7.1501,7.1574,7.1726,7.1756,7.184,7.1828,7.1932,7.184,7.1841,7.183,7.1825,7.1834,7.1949,7.1952,7.1955,7.1957,0,7.1056,7.106,7.1139,7.1223,7.1288,7.1353,7.1415,7.1461,7.1471,7.1537,7.1634,7.1691,7.1804,7.1896,7.198,7.2012,7.1987,7.1986,7.2012,7.2015,7.2009,7.2014,7.1704,7.1978,7.1976,7.1974,7.1973,7.1972,7.1222,7.1297,7.1356,7.1446,7.1493,7.1552,7.1626,7.1653,7.1734,7.1827,7.1824,7.193,7.1989,7.2099,7.2139,7.2222,7.2188,7.2226,7.2236,7.2245,7.2255,7.1996,7.2237,7.2237,7.2236,7.2236,7.2235,0,7.1453,7.1489,7.1572,7.166,7.1731,7.1703,7.177,7.1831,7.1926,7.1983,7.2057,7.2169,7.2258,7.2296,7.2384,7.2444,7.2435,7.2467,7.2462,7.2471,7.228,7.2249,7.2473,7.2473,7.2473,7.2473,7.2473,7.2473,7.1581,7.1708,7.172,7.1871,7.1907,7.2012,7.2053,7.2108,7.2154,7.228,7.2355,7.2379,7.2429,7.2521,7.2603,7.2612,7.2645,7.2683,7.2687,7.2508,7.2484,7.2461,7.2431,7.269,7.2691,7.287,7.2872,7.2873]},{"header":{"parameterUnit":"m.s-1","parameterCategory":1,"la1":30.2991,"la2":30.254,"lo1":-89.0895,"lo2":-89.0444,"dy":0.0017,"dx":0.0017,"nx":28,"ny":28,"refTime":"2025-03-19T21:00:00:Z","depth":0,"parameterNumber":3,"parameterNumberName":"V-component_of_WINDS"},"data":[0,0,0,0,0,0,0,0,0,0,0,0,0,0,0,0,0,0,0,0,0,0,0,0,0,0,0,0,0,0,0,0,0,0,0,0,0,0,0,0,0,0,0,0,0,0,0,0,0,0,0,0,0,0,0,0,0,0,-7.6541,-7.6543,0,-7.6726,-7.6728,-7.6731,-7.6679,-7.6675,-7.6671,-7.6668,-7.6855,-7.6864,-7.6872,0,0,0,0,0,0,0,0,0,0,0,0,0,-7.614,-7.6148,-7.654,-7.6543,-7.6545,-7.6726,-7.6729,-7.6731,-7.6679,-7.6675,-7.667,-7.6666,-7.6853,-7.6863,-7.6873,0,0,0,0,0,0,0,0,0,0,0,0,0,-7.6319,-7.615,-7.654,-7.6541,-7.6543,-7.6726,-7.6729,-7.6732,-7.668,-7.6675,-7.6669,-7.6664,-7.6849,-7.6862,-7.6874,-7.7066,0,0,-7.6913,-7.6919,0,0,0,0,0,0,0,0,-7.6309,-7.6333,-7.6539,-7.6541,-7.6544,-7.6674,-7.6656,-7.6844,-7.6682,-7.6628,-7.6668,-7.6661,-7.6799,-7.6816,-7.6863,-7.7075,-7.7083,-7.6914,-7.6922,-7.6928,-7.6931,0,0,0,0,0,0,0,-7.6296,-7.6325,-7.6614,-7.6542,-7.6545,-7.6532,-7.6551,-7.6691,-7.6743,-7.6632,-7.6629,-7.6652,-7.68,-7.6851,-7.6867,-7.7086,-7.6914,-7.6925,-7.6933,-7.6938,-7.7466,-7.7472,0,0,0,0,0,0,-7.6282,-7.6315,-7.6608,-7.6619,-7.641,-7.6544,-7.6565,-7.6638,-7.6741,-7.6752,-7.6657,-7.6649,-7.6832,-7.6852,-7.6873,-7.7106,-7.6927,-7.6939,-7.6947,-7.746,-7.7468,-7.7474,0,0,0,0,0,0,-7.6274,-7.6309,-7.66,-7.6467,-7.6503,-7.6557,-7.6638,-7.6644,-7.6695,-7.676,-7.6768,-7.67,-7.6828,-7.6855,-7.7019,-7.7112,-7.6945,-7.6957,-7.7452,-7.7462,-7.7471,-7.7572,0,0,0,0,0,0,-7.6262,-7.6306,-7.6379,-7.6469,-7.651,-7.6744,-7.6644,-7.6652,-7.6718,-7.671,-7.6802,-7.6812,-7.6826,-7.7,-7.7032,-7.7126,-7.6967,-7.7444,-7.7457,-7.7468,-7.7561,-7.7584,-7.7604,0,0,0,0,0,-7.6248,-7.64,-7.6383,-7.6419,-7.6603,-7.6749,-7.6773,-7.6786,-7.6726,-7.68,-7.6842,-7.6809,-7.7097,-7.7018,-7.7053,-7.7152,-7.7438,-7.7453,-7.7467,-7.7551,-7.758,-7.7604,0,0,0,0,0,0,-7.6319,-7.6411,-7.6394,-7.6579,-7.6657,-7.674,-7.6834,-7.6815,-7.6911,-7.6899,-7.6911,-7.6932,-7.71,-7.7142,-7.7053,-7.7345,-7.7259,-7.7281,-7.7311,-7.7338,-7.7359,-7.7346,-7.6977,0,0,0,0,0,-7.6356,-7.6467,-7.6542,-7.6698,-7.6738,-7.678,-7.6844,-7.6848,-7.6928,-7.696,-7.7014,-7.7093,-7.7201,-7.7272,-7.7375,-7.7567,-7.7587,-7.7653,-7.7674,-7.7692,-7.7711,-7.7817,-7.7848,-7.7522,-7.7521,-7.7521,0,0,-7.6433,-7.6498,-7.6567,-7.6714,-7.6774,-7.6889,-7.6807,-7.6932,-7.7018,-7.6979,-7.7137,-7.718,-7.7269,-7.7448,-7.753,-7.7488,-7.7806,-7.771,-7.7724,-7.7733,-7.7835,-7.7866,-7.7893,-7.7531,-7.753,-7.7528,0,0,-7.6634,-7.6694,-7.6831,-7.6894,-7.6987,-7.7015,-7.7048,-7.7135,-7.7162,-7.7321,-7.7295,-7.7397,-7.7583,-7.7648,-7.7705,-7.7933,-7.7907,-7.7966,-7.8079,-7.8182,-7.8208,-7.8231,-7.8313,-7.8343,-7.7985,-7.7985,-7.7985,0,-7.6718,-7.6891,-7.6903,-7.7032,-7.7097,-7.7069,-7.7209,-7.7269,-7.7391,-7.7437,-7.7389,-7.7623,-7.7681,-7.7876,-7.7932,-7.7979,-7.8017,-7.7956,-7.8203,-7.8227,-7.8248,-7.8327,-7.8358,-7.7992,-7.7991,-7.799,-7.799,0,-7.6991,-7.7111,-7.7211,-7.7332,-7.7408,-7.7541,-7.7574,-7.765,-7.7648,-7.768,-7.7844,-7.7912,-7.803,-7.8076,-7.8074,-7.8272,-7.8244,-7.82,-7.8114,-7.8286,-7.836,-7.839,-7.8001,-7.7999,-7.7997,-7.7995,0,0,-7.724,-7.7367,-7.7404,-7.7459,-7.7561,-7.7654,-7.7786,-7.7902,-7.7968,-7.8053,-7.8165,-7.8324,-7.8285,-7.835,-7.8356,-7.8447,-7.8624,-7.8392,-7.8394,-7.8433,-7.8848,-7.888,-7.8915,-7.8608,-7.8614,-7.8618,-7.884,0,-7.745,-7.7683,-7.7699,-7.791,-7.8022,-7.7998,-7.8114,-7.8189,-7.8223,-7.8323,-7.836,-7.8473,-7.8413,-7.8452,-7.8541,-7.8584,-7.8708,-7.8568,-7.8712,-7.8717,-7.8691,-7.8954,-7.8988,-7.9195,-7.8869,-7.8874,-7.8878,0,-7.7726,-7.7822,-7.8044,-7.8133,-7.818,-7.8284,-7.8392,-7.8488,-7.8573,-7.8592,-7.8666,-7.8659,-7.8795,-7.8705,-7.8893,-7.8798,-7.8857,-7.8888,-7.8896,-7.891,-7.8808,-7.8975,-7.926,-7.9292,-7.8923,-7.892,-7.8917,0,-7.7887,-7.8071,-7.8229,-7.8276,-7.8383,-7.8456,-7.8504,-7.8584,-7.8653,-7.8748,-7.8793,-7.8902,-7.8962,-7.9047,-7.907,-7.9001,-7.9258,-7.9169,-7.9277,-7.9277,-7.9332,-7.9328,-7.9632,-7.937,-7.937,-7.9369,-7.9368,0,-7.812,-7.8257,-7.8303,-7.84,-7.8553,-7.857,-7.8722,-7.8765,-7.8836,-7.8941,-7.8927,-7.9025,-7.905,-7.9153,-7.9172,-7.9326,-7.9353,-7.9372,-7.9375,-7.9374,-7.9371,-7.9413,-7.9399,-7.9377,-7.9375,-7.9374,-7.9372,0,-7.8325,-7.8361,-7.8531,-7.8619,-7.8644,-7.8754,-7.8828,-7.8922,-7.8955,-7.9088,-7.912,-7.9172,-7.9293,-7.9325,-7.9469,-7.9482,-7.9663,-7.9653,-7.9635,-7.9635,-7.9742,-7.9732,-8.0083,-8.0131,-7.9837,-7.984,-7.9842,0,-7.8472,-7.8577,-7.8677,-7.8747,-7.8798,-7.8911,-7.8982,-7.9003,-7.9078,-7.9184,-7.9265,-7.9385,-7.9482,-7.9677,-7.9727,-7.9838,-7.9831,-7.9946,-7.9847,-7.9843,-7.9834,-7.9828,-7.9839,-7.9965,-7.9968,-7.9971,-7.9973,0,-7.8729,-7.8742,-7.8846,-7.8957,-7.9043,-7.9131,-7.9215,-7.9273,-7.9306,-7.9391,-7.9516,-7.9591,-7.974,-7.986,-7.9972,-8.0021,-8.0003,-8.0004,-8.0035,-8.0034,-8.002,-8.0031,-7.9687,-7.9995,-7.9993,-7.9991,-7.999,-7.9989,-7.891,-7.9004,-7.9089,-7.9205,-7.9272,-7.9351,-7.9444,-7.9489,-7.9594,-7.9717,-7.9724,-7.9859,-7.9943,-8.0093,-8.0148,-8.0254,-8.0219,-8.0264,-8.0276,-8.0287,-8.0297,-8.0003,-8.0275,-8.0274,-8.0273,-8.0273,-8.0273,0,-7.9168,-7.9222,-7.9329,-7.9448,-7.954,-7.9517,-7.9609,-7.9688,-7.9808,-7.9888,-7.9984,-8.0129,-8.0245,-8.0305,-8.0421,-8.0494,-8.0489,-8.0524,-8.0519,-8.0531,-8.0321,-8.0283,-8.0526,-8.0526,-8.0526,-8.0526,-8.0526,-8.0526,-7.9312,-7.947,-7.9493,-7.9683,-7.9736,-7.987,-7.9925,-7.9999,-8.0063,-8.0225,-8.0322,-8.0361,-8.0434,-8.0555,-8.0661,-8.0675,-8.0719,-8.0758,-8.0769,-8.0571,-8.0545,-8.0521,-8.0485,-8.0767,-8.0768,-8.097,-8.0972,-8.0974]}]]